Home   Weather   Bloomington   Past weeks

Flag for USA Past Weather in Bloomington, Illinois, USA — Yesterday and Last 2 Weeks

Now
32 °F

Ice fog.


Feels Like: 24 °F
Forecast: 34 / 41 °F
Wind: 9 mph from South

Location: Bloomington / Normal

Current Time: Jan 18, 2017 at 10:50:22 pm

Latest Report: Jan 18, 2017 at 9:56 pm


Visibility: 4 mi

Pressure: 30.16 "Hg

Humidity: 96%

Dew Point: 31 °F

Location of BloomingtonLocation

Past Weather in Bloomington — Graph

°F

Bloomington Temperature Yesterday

Maximum temperature yesterday: 52 °F (at 12:43 am)
Minimum temperature yesterday: 35 °F (at 6:56 pm)
Average temperature yesterday: 40 °F

High & Low Weather Summary for the Past Weeks

 TemperatureHumidityPressure
High57 °F (Jan 11, 6:56 pm)100% (Jan 5, 7:56 pm)30.82 "Hg (Jan 5, 7:56 pm)
Low-1 °F (Jan 6, 6:56 am)35% (Jan 11, 10:10 am)29.37 "Hg (Jan 10, 12:56 pm)
Average27 °F85%30.21 "Hg
* Reported Jan 3 8:02 pm — Jan 18 8:56 pm, Bloomington, Weather by CustomWeather, © 2017

Note: Actual official high and low records may vary slightly from our data, if they occured in-between our weather recording intervals... More about our weather records

Advertising

Bloomington Weather History for the Previous 24 Hours

Scroll right to see more
 ConditionsComfort  
Time TempWeatherWind HumidityBarometerVisibility
8:56 pm
Wed, Jan 18
31 °FIce fog.9 mph100%30.16 "Hg4 mi
7:56 pm33 °FClear.7 mph96%30.17 "Hg9 mi
6:56 pm35 °FClear.6 mph96%30.18 "Hg9 mi
5:56 pm34 °FClear.5 mph97%30.18 "Hg9 mi
4:56 pm36 °FPassing clouds.10 mph92%30.16 "Hg7 mi
3:56 pm38 °FPartly sunny.10 mph90%30.16 "Hg8 mi
2:56 pm39 °FPartly sunny.12 mph82%30.15 "Hg10 mi
1:56 pm37 °FOvercast.15 mph89%30.18 "Hg10 mi
12:56 pm36 °FPartly sunny.9 mph85%30.20 "Hg10 mi
11:56 am36 °FOvercast.13 mph85%30.23 "Hg10 mi
10:56 am36 °FOvercast.13 mph85%30.27 "Hg10 mi
9:56 am35 °FMostly cloudy.12 mph88%30.29 "Hg10 mi
8:58 am36 °FMostly cloudy.9 mph93%30.20 "Hg9 mi
7:56 am34 °FFog.8 mph97%30.24 "Hg4 mi
6:56 am34 °FFog.12 mph97%30.24 "Hg6 mi
5:56 am34 °FFog.10 mph97%30.23 "Hg6 mi
4:56 am34 °FFog.15 mph97%30.23 "Hg6 mi
3:56 am34 °FFog.14 mph97%30.22 "Hg4 mi
3:24 am34 °FFog.15 mph100%30.14 "Hg3 mi
1:56 am34 °FFog.15 mph97%30.20 "Hg4 mi
12:56 am34 °FLow clouds.20 mph97%30.18 "Hg7 mi
11:56 pm
Tue, Jan 17
35 °FFog.12 mph92%30.16 "Hg6 mi
10:56 pm35 °FFog.14 mph96%30.15 "Hg4 mi
10:32 pm36 °FFog.13 mph93%30.07 "Hg3 mi
Weather by CustomWeather, © 2017

See weather overviewHow to use our weather pages